PST,Max TemperatureF,Mean TemperatureF,Min TemperatureF,Max Dew PointF,MeanDew PointF,Min DewpointF,Max Humidity, Mean Humidity, Min Humidity, Max Sea Level PressureIn, Mean Sea Level PressureIn, Min Sea Level PressureIn, Max VisibilityMiles, Mean VisibilityMiles, Min VisibilityMiles, Max Wind SpeedMPH, Mean Wind SpeedMPH, Max Gust SpeedMPH,PrecipitationIn, CloudCover, Events, WindDirDegrees
2013-2-1,46,44,41,43,38,36,93,81,71,30.43,30.40,30.35,10,9,2,12,4,,0.00,5,,23
2013-2-2,42,40,37,37,36,34,93,84,76,30.39,30.33,30.28,10,8,0,15,8,21,0.00,7,,41
2013-2-3,46,42,39,39,38,36,93,85,76,30.32,30.27,30.22,10,7,0,10,4,,0.00,8,,182
2013-2-4,48,42,35,37,37,32,93,77,66,30.22,30.09,29.91,10,10,5,12,7,16,0.00,7,,191
2013-2-5,46,42,39,43,38,36,87,81,76,29.96,29.89,29.84,10,10,5,16,11,25,0.47,8,,182
2013-2-6,44,42,41,39,37,36,87,83,76,30.06,29.97,29.81,10,10,8,15,9,21,0.30,8,,180
2013-2-7,46,38,30,37,32,27,87,77,50,30.20,30.03,29.83,10,10,9,16,9,21,0.08,4,,182
2013-2-8,44,34,24,36,29,19,93,79,61,30.33,30.29,30.21,10,10,4,6,1,,0.00,5,,71
2013-2-9,46,40,33,37,33,28,93,80,61,30.36,30.30,30.27,10,10,7,8,1,,0.00,8,,42
2013-2-10,42,40,37,36,35,34,87,84,76,30.40,30.37,30.34,10,9,5,7,3,,0.00,8,,36
2013-2-11,44,38,32,39,35,28,93,82,71,30.38,30.36,30.34,10,7,0,12,2,,0.00,8,,204
2013-2-12,50,46,41,43,39,37,87,83,76,30.42,30.36,30.30,10,8,0,25,6,33,0.00,8,,209
2013-2-13,48,44,39,41,38,36,87,82,66,30.52,30.43,30.32,10,9,3,18,7,28,0.00,7,,184
2013-2-14,44,42,39,41,38,36,93,85,81,30.58,30.55,30.51,10,7,2,10,4,,0.00,8,,175
2013-2-15,53,43,33,43,38,27,87,79,58,30.58,30.39,30.20,10,9,0,13,4,,0.00,4,,25
2013-2-16,51,42,32,41,35,28,93,76,54,30.21,30.17,30.13,10,9,0,22,8,29,0.00,5,,193
2013-2-17,44,36,28,36,32,25,87,79,66,30.27,30.21,30.13,10,10,3,8,1,,0.00,6,,171
2013-2-18,44,38,33,34,33,30,87,80,65,30.12,29.94,29.78,10,10,2,15,3,16,0.03,7,,187
2013-2-19,46,37,26,37,32,21,87,79,57,30.04,29.86,29.76,10,10,5,9,2,,0.02,5,,9
2013-2-20,42,35,28,37,32,23,93,85,76,30.06,30.04,30.01,10,9,0,13,2,16,0.21,8,,180
2013-2-21,41,39,37,37,35,34,87,85,81,30.09,30.05,30.02,10,10,5,18,9,26,0.02,6,,190
2013-2-22,46,40,35,41,34,28,87,82,66,30.07,29.86,29.70,10,10,5,25,16,34,0.79,5,,192
2013-2-23,42,34,28,34,29,25,93,83,70,30.17,30.02,29.92,10,10,10,15,7,,0.00,3,,182
2013-2-24,,,,,,,,,,,,,,,,,,,,,,
2013-2-25,50,38,26,36,29,21,86,65,40,30.32,30.16,30.00,10,10,10,22,15,31,0.00,0,,203
2013-2-26,44,35,26,36,31,19,93,79,61,30.37,30.30,30.21,10,9,0,15,4,21,0.09,6,,189
2013-2-27,44,40,37,39,36,34,93,85,76,30.32,30.28,30.21,10,9,2,10,4,,0.10,7,,193
2013-2-28,48,44,41,46,41,37,93,87,81,30.35,30.27,30.21,10,7,2,15,5,18,0.69,8,,195